Terminal Aerodrome Forecast
Issued by NWS

Current Version | Previous Version | Graphics & Text | Print | Product List | Glossary On
Versions: 1 2 3 4 5 6 7 8 9 10 11 12 13 14 15 16 17 18 19 20 21 22 23 24 25 26 27 28 29 30 31 32 33 34 35 36
000
FTUS41 KRNK 241140
TAFLWB
TAF
KLWB 241140Z 2412/2512 03004KT P6SM OVC100
     FM241600 VRB03KT P6SM SCT035 BKN100
     FM250300 25007KT P6SM SCT030=

USA.gov is the U.S. government's official web portal to all federal, state and local government web resources and services.